Latest Weather Observations for Ballarat

IDV60801

Issued at 11:02 am EDT Friday 27 February 2015 (issued every 30 minutes, with the page automatically refreshed every 10 minutes)

About weather observations | Map of weather stations | Latest weather observations for VIC | Other Formats
Station Details ID: 089002 Name: BALLARAT AERODROME Lat: -37.51 Lon: 143.79 Height: 435.2 m
Data from the previous 72 hours. | See also: Recent months at Ballarat
Date/Time
EDT
Temp
°C
App
Temp
°C
Dew
Point
Rel
Hum
%
Delta-T
°C
Wind Press
QNH
hPa
Press
MSL
hPa
Rain
since 9 am
mm
Dir
 
Spd
km/h
Gust
km/h
Spd
kts
Gust
kts
27/11:00am 18.8 17.8 10.9 60 4.4 S 7 13 4 7 1012.3 1010.9 0.0
27/10:30am 17.8 16.0 10.7 63 3.9 SSE 11 17 6 9 1011.9 1010.5 0.0
27/10:00am 17.0 15.2 10.8 67 3.4 SSW 11 17 6 9 1012.4 1011.0 0.0
27/09:30am 15.8 14.7 12.0 78 2.1 SE 9 15 5 8 1012.1 1010.7 0.0
27/09:00am 13.6 13.0 13.6 100 0.0 SE 9 11 5 6 1011.9 1010.5 0.0
27/08:58am 13.9 13.4 13.9 100 0.0 SE 9 11 5 6 1011.8 1010.4 0.0
27/08:54am 13.6 13.0 13.6 100 0.0 ESE 9 11 5 6 1011.7 1010.3 0.0
27/08:30am 11.9 11.2 11.9 100 0.0 SSE 7 9 4 5 1011.8 1010.4 0.0
27/08:00am 11.3 10.0 11.3 100 0.0 ESE 9 11 5 6 1011.5 1010.1 0.0
27/07:30am 10.4 9.2 10.4 100 0.0 S 7 11 4 6 1011.4 1010.0 0.0
27/07:03am 9.8 8.7 9.8 100 0.0 S 6 7 3 4 1011.2 1009.7 0.0
27/07:00am 10.0 8.9 10.0 100 0.0 SSE 6 7 3 4 1011.3 1009.9 0.0
27/06:31am 10.9 10.1 10.9 100 0.0 SSE 6 7 3 4 1010.9 1009.4 0.0
27/06:30am 11.0 10.0 11.0 100 0.0 SSE 7 7 4 4 1010.9 1009.4 0.0
27/06:24am 10.9 9.9 10.9 100 0.0 SSE 7 7 4 4 1010.6 1009.2 0.0
27/05:32am 11.1 9.8 11.1 100 0.0 SE 9 11 5 6 1010.6 1009.2 0.0
27/05:30am 11.2 9.9 11.2 100 0.0 SE 9 15 5 8 1010.6 1009.2 0.0
27/05:00am 11.1 9.8 11.1 100 0.0 SE 9 11 5 6 1010.9 1009.4 0.0
27/04:30am 12.5 11.6 12.5 100 0.0 S 9 11 5 6 1011.3 1009.9 0.0
27/04:00am 12.3 11.7 12.3 100 0.0 S 7 9 4 5 1011.2 1009.7 0.0
27/03:30am 11.9 10.7 11.7 99 0.1 SE 9 11 5 6 1011.2 1009.7 0.0
27/03:00am 12.3 11.2 12.1 99 0.1 SSE 9 13 5 7 1011.8 1010.4 0.0
27/02:30am 13.1 11.9 12.9 99 0.1 S 11 15 6 8 1012.1 1010.7 0.0
27/02:00am 13.3 12.2 13.0 98 0.2 S 11 15 6 8 1011.9 1010.5 0.0
27/01:30am 13.8 12.4 13.5 98 0.2 SSE 13 17 7 9 1011.8 1010.4 0.0
27/01:10am 14.1 12.5 13.8 98 0.2 SSE 15 20 8 11 1011.9 1010.5 0.0
27/01:00am 14.2 12.2 13.9 98 0.2 SSE 17 22 9 12 1012.0 1010.6 0.0
27/12:30am 14.8 13.0 14.5 98 0.2 SE 17 22 9 12 1012.2 1010.8 0.0
27/12:00am 14.6 12.7 14.3 98 0.2 SE 17 24 9 13 1012.0 1010.6 0.0
 
Date/Time
EDT
Temp
°C
App
Temp
°C
Dew
Point
Rel
Hum
%
Delta-T
°C
Wind Press
QNH
hPa
Press
MSL
hPa
Rain
since 9 am
mm
Dir
 
Spd
km/h
Gust
km/h
Spd
kts
Gust
kts
26/11:33pm 14.3 11.4 14.1 99 0.1 SE 22 28 12 15 1012.3 1010.9 0.0
26/11:30pm 14.2 11.6 13.9 98 0.2 SE 20 28 11 15 1012.4 1011.0 0.0
26/11:00pm 14.3 12.3 14.0 98 0.2 SE 17 20 9 11 1012.5 1011.1 0.0
26/10:30pm 14.8 12.4 13.7 93 0.6 SE 19 24 10 13 1012.4 1011.0 0.0
26/10:00pm 15.9 13.3 13.7 87 1.3 SE 20 28 11 15 1012.1 1010.7 0.0
26/09:30pm 16.9 14.2 12.8 77 2.3 SSE 19 24 10 13 1011.8 1010.4 0.0
26/08:30pm 18.6 15.4 11.2 62 4.1 S 19 26 10 14 1011.5 1010.1 0.0
26/08:00pm 19.5 15.6 10.8 57 4.8 S 22 28 12 15 1011.1 1009.6 0.0
26/07:30pm 20.8 16.0 10.3 51 5.8 S 26 35 14 19 1010.6 1009.2 0.0
26/07:00pm 21.9 18.2 10.1 47 6.6 S 20 28 11 15 1010.3 1008.9 0.0
26/06:30pm 22.3 19.0 11.7 51 6.1 SSW 20 28 11 15 1010.1 1008.7 0.0
26/06:00pm 23.4 20.4 10.8 45 7.1 SW 17 24 9 13 1010.0 1008.6 0.0
26/05:30pm 23.6 21.3 11.6 47 6.9 SSW 15 22 8 12 1009.9 1008.5 0.0
26/05:00pm 23.8 20.8 12.1 48 6.8 SW 19 28 10 15 1010.0 1008.6 0.0
26/04:30pm 23.7 21.3 12.7 50 6.4 SW 17 28 9 15 1010.1 1008.7 0.0
26/04:00pm 23.3 21.5 13.2 53 6.0 SSW 15 30 8 16 1010.3 1008.9 0.0
26/03:30pm 23.4 21.2 12.1 49 6.5 SW 15 26 8 14 1010.6 1009.2 0.0
26/03:00pm 23.6 21.4 13.2 52 6.1 SSW 17 22 9 12 1011.1 1009.6 0.0
26/02:30pm 22.9 20.1 12.5 52 6.0 S 19 28 10 15 1011.3 1009.9 0.0
26/02:00pm 22.5 20.6 13.0 55 5.6 SSW 15 26 8 14 1011.5 1010.1 0.0
26/01:30pm 22.0 19.9 12.5 54 5.5 SW 15 24 8 13 1011.6 1010.2 0.0
26/01:00pm 21.1 18.3 11.4 54 5.5 SSW 17 26 9 14 1012.0 1010.6 0.0
26/12:30pm 20.7 18.4 12.9 61 4.5 SSW 17 24 9 13 1012.1 1010.7 0.0
26/12:00pm 19.8 17.9 11.8 60 4.5 SSW 13 19 7 10 1012.2 1010.8 0.0
26/11:30am 18.7 16.4 13.1 70 3.2 SSW 17 22 9 12 1012.4 1011.0 0.0
26/11:00am 18.0 16.3 13.7 76 2.5 S 15 20 8 11 1012.4 1011.0 0.0
26/10:36am 16.4 14.7 13.5 83 1.7 S 15 19 8 10 1012.3 1010.9 0.0
26/10:30am 16.5 14.6 14.2 86 1.3 SSW 17 22 9 12 1012.4 1011.0 0.0
26/10:00am 16.4 15.1 15.9 97 0.3 S 17 22 9 12 1012.3 1010.9 0.0
26/09:30am 15.0 14.5 14.8 99 0.1 S 11 15 6 8 1012.0 1010.6 0.0
26/09:00am 14.4 13.7 14.4 100 0.0 SSW 11 15 6 8 1011.9 1010.5 1.0
26/08:30am 13.9 12.7 13.9 100 0.0 SSW 13 19 7 10 1011.7 1010.3 1.0
26/08:00am 13.5 12.5 13.5 100 0.0 SSW 11 17 6 9 1011.7 1010.3 1.0
26/07:30am 13.4 12.8 13.4 100 0.0 SSW 9 15 5 8 1011.8 1010.4 0.4
26/07:21am 13.3 11.9 13.3 100 0.0 SSW 13 17 7 9 1011.5 1010.1 0.4
26/07:00am 13.0 10.7 13.0 100 0.0 SSW 17 22 9 12 1011.4 1010.0 0.2
26/06:46am 12.9 11.0 12.9 100 0.0 SW 15 22 8 12 1011.3 1009.9 0.0
26/06:30am 13.0 11.4 12.8 99 0.1 SSW 13 19 7 10 1011.1 1009.6 0.0
26/06:25am 13.0 11.0 12.8 99 0.1 SW 15 22 8 12 1011.0 1009.5 0.0
26/06:00am 13.5 12.4 13.2 98 0.2 WSW 11 17 6 9 1010.5 1009.1 0.0
26/05:30am 13.3 12.6 13.1 99 0.1 SSE 9 9 5 5 1009.8 1008.4 0.0
26/05:00am 13.4 12.3 13.1 98 0.2 S 11 13 6 7 1009.9 1008.5 0.0
26/04:30am 13.7 12.7 13.4 98 0.2 SSW 11 17 6 9 1010.2 1008.8 0.0
26/04:00am 14.0 12.7 13.8 99 0.1 SSW 13 17 7 9 1010.6 1009.2 0.0
26/03:30am 14.4 13.7 14.2 99 0.1 SSW 11 17 6 9 1010.5 1009.1 0.0
26/03:00am 14.7 13.7 14.5 99 0.1 S 13 17 7 9 1010.7 1009.3 0.0
26/02:30am 14.5 14.5 14.3 99 0.1 S 7 9 4 5 1010.9 1009.4 0.0
26/02:00am 14.3 13.9 14.1 99 0.1 S 9 9 5 5 1011.2 1009.7 0.0
26/01:30am 14.6 13.9 14.4 99 0.1 S 11 13 6 7 1011.7 1010.3 0.0
26/01:00am 14.6 13.9 14.4 99 0.1 S 11 15 6 8 1011.9 1010.5 0.0
26/12:30am 15.4 15.0 15.2 99 0.1 S 11 17 6 9 1011.8 1010.4 0.0
26/12:00am 15.2 14.7 14.9 98 0.2 S 11 15 6 8 1011.7 1010.3 0.0
 
Date/Time
EDT
Temp
°C
App
Temp
°C
Dew
Point
Rel
Hum
%
Delta-T
°C
Wind Press
QNH
hPa
Press
MSL
hPa
Rain
since 9 am
mm
Dir
 
Spd
km/h
Gust
km/h
Spd
kts
Gust
kts
25/11:30pm 15.6 14.8 15.1 97 0.3 S 13 17 7 9 1011.9 1010.5 0.0
25/11:00pm 16.4 15.0 14.6 89 1.1 S 15 20 8 11 1012.1 1010.7 0.0
25/10:30pm 16.6 15.0 13.9 84 1.6 S 15 19 8 10 1012.2 1010.8 0.0
25/10:00pm 17.5 15.2 14.2 81 1.9 S 19 24 10 13 1012.1 1010.7 0.0
25/09:30pm 17.9 16.0 14.2 79 2.2 SSE 17 20 9 11 1011.6 1010.2 0.0
25/09:00pm 18.7 16.2 14.0 74 2.8 S 20 26 11 14 1011.6 1010.2 0.0
25/08:30pm 19.8 17.2 13.7 68 3.6 S 20 26 11 14 1011.2 1009.7 0.0
25/08:00pm 21.7 19.7 12.8 57 5.2 S 15 19 8 10 1011.2 1009.7 0.0
25/07:30pm 23.2 21.5 12.5 51 6.2 S 13 20 7 11 1011.1 1009.6 0.0
25/07:00pm 23.9 21.5 12.5 49 6.7 SSE 17 20 9 11 1011.1 1009.6 0.0
25/06:30pm 24.6 23.2 12.2 46 7.2 SSW 11 17 6 9 1011.2 1009.7 0.0
25/06:00pm 24.6 22.9 12.5 46 7.1 SSW 13 20 7 11 1011.3 1009.9 0.0
25/05:30pm 24.3 23.3 12.3 47 7.0 S 9 15 5 8 1011.4 1010.0 0.0
25/05:00pm 24.7 23.6 13.0 48 6.9 S 11 22 6 12 1011.4 1010.0 0.0
25/04:30pm 24.7 24.4 12.6 47 7.1 E 6 9 3 5 1011.9 1010.5 0.0
25/04:00pm 24.2 23.2 12.2 47 7.0 ESE 9 11 5 6 1012.3 1010.9 0.0
25/03:30pm 24.2 23.7 12.8 49 6.7 W 7 19 4 10 1012.5 1011.1 0.0
25/03:00pm 23.2 22.2 13.4 54 5.8 SSW 11 19 6 10 1013.1 1011.7 0.0
25/02:30pm 23.1 22.3 14.1 57 5.4 SSE 11 19 6 10 1013.6 1012.2 0.0
25/02:00pm 22.0 20.5 13.1 57 5.2 S 13 20 7 11 1014.0 1012.6 0.0
25/01:30pm 20.8 19.0 13.3 62 4.4 SSW 15 20 8 11 1014.6 1013.2 0.0
25/01:00pm 20.5 19.0 13.2 63 4.2 S 13 20 7 11 1015.0 1013.6 0.0
25/12:30pm 19.6 18.1 13.1 66 3.8 S 13 22 7 12 1015.2 1013.8 0.0
25/12:00pm 18.8 17.6 12.8 68 3.4 SSE 11 20 6 11 1015.9 1014.5 0.0
25/11:30am 18.1 16.4 12.5 70 3.2 SSE 13 20 7 11 1015.7 1014.3 0.0
25/11:00am 17.6 15.5 12.5 72 2.9 SE 15 20 8 11 1015.7 1014.3 0.0
25/10:30am 16.3 13.9 12.7 79 2.0 SE 17 26 9 14 1015.7 1014.3 0.0
25/10:16am 16.0 13.5 12.4 79 2.0 SE 17 22 9 12 1015.8 1014.4 0.0
25/10:00am 16.4 13.9 12.2 76 2.4 SE 17 22 9 12 1015.9 1014.5 0.0
25/09:30am 15.4 12.7 12.9 85 1.4 SE 19 24 10 13 1016.0 1014.6 0.0
25/09:00am 15.1 12.4 13.5 90 0.9 SE 20 26 11 14 1016.0 1014.6 0.0
25/08:30am 14.2 12.0 13.4 95 0.5 SSE 17 24 9 13 1015.9 1014.5 0.0
25/08:29am 14.3 12.2 13.7 96 0.3 SSE 17 24 9 13 1015.9 1014.5 0.0
25/08:02am 13.8 11.3 13.5 98 0.2 SSE 19 24 10 13 1015.8 1014.4 0.0
25/08:00am 13.8 11.3 13.5 98 0.2 SSE 19 24 10 13 1015.8 1014.4 0.0
25/07:30am 13.6 10.8 13.3 98 0.2 SE 20 28 11 15 1015.7 1014.3 0.0
25/07:17am 13.7 9.8 13.4 98 0.2 SE 26 37 14 20 1015.5 1014.2 0.0
25/07:15am 13.7 9.8 13.4 98 0.2 SE 26 37 14 20 1015.4 1014.1 0.0
25/07:00am 13.6 10.9 13.4 99 0.1 SE 20 30 11 16 1015.4 1014.1 0.0
25/06:30am 13.0 10.7 13.0 100 0.0 SSE 17 24 9 13 1015.4 1014.1 0.0
25/06:00am 12.8 9.5 12.8 100 0.0 SSE 22 28 12 15 1015.3 1014.0 0.0
25/05:30am 12.7 9.7 12.7 100 0.0 SSE 20 26 11 14 1015.4 1014.1 0.0
25/05:00am 12.6 9.2 12.6 100 0.0 SSE 22 30 12 16 1015.3 1014.0 0.0
25/04:30am 12.1 9.1 11.9 99 0.1 S 19 24 10 13 1015.7 1014.3 0.0
25/04:00am 12.2 9.0 12.0 99 0.1 S 20 24 11 13 1016.1 1014.7 0.0
25/03:30am 12.3 8.8 12.1 99 0.1 S 22 30 12 16 1016.4 1015.0 0.0
25/03:00am 12.3 9.2 12.1 99 0.1 SSE 20 28 11 15 1016.6 1015.2 0.0
25/02:30am 12.2 8.3 12.0 99 0.1 S 24 33 13 18 1016.8 1015.4 0.0
25/02:00am 12.2 8.6 12.0 99 0.1 S 22 32 12 17 1017.2 1015.8 0.0
25/01:30am 12.3 7.3 12.1 99 0.1 S 30 41 16 22 1017.1 1015.7 0.0
25/01:00am 12.0 6.8 11.7 98 0.2 SSE 30 39 16 21 1017.3 1016.0 0.0
25/12:59am 12.0 7.2 11.7 98 0.2 SSE 28 39 15 21 1017.3 1016.0 0.0
25/12:30am 11.8 7.0 11.5 98 0.2 S 28 35 15 19 1017.6 1016.3 0.0
25/12:00am 12.1 7.5 11.2 94 0.5 SSE 26 33 14 18 1018.2 1016.8 0.0
 
Date/Time
EDT
Temp
°C
App
Temp
°C
Dew
Point
Rel
Hum
%
Delta-T
°C
Wind Press
QNH
hPa
Press
MSL
hPa
Rain
since 9 am
mm
Dir
 
Spd
km/h
Gust
km/h
Spd
kts
Gust
kts
24/11:30pm 11.8 6.6 10.4 91 0.7 SSE 28 39 15 21 1018.6 1017.2 0.0
24/11:00pm 12.1 7.1 9.5 84 1.3 SSE 26 39 14 21 1019.2 1017.8 0.0
24/10:30pm 11.6 7.2 8.8 83 1.4 SSE 22 30 12 16 1019.7 1018.4 0.0
24/10:00pm 11.9 5.5 8.4 79 1.8 SSE 32 43 17 23 1019.9 1018.6 0.0
24/09:30pm 11.8 6.3 7.5 75 2.1 SSE 26 37 14 20 1019.8 1018.5 0.0
24/09:00pm 12.3 6.3 7.0 70 2.6 SSE 28 39 15 21 1019.9 1018.6 0.0
24/08:30pm 12.8 6.7 6.8 67 3.0 SSE 28 39 15 21 1019.8 1018.5 0.0
24/08:00pm 13.2 6.7 6.5 64 3.3 SSE 30 41 16 22 1019.7 1018.4 0.0
24/07:30pm 14.5 7.6 6.6 59 3.9 SSE 32 46 17 25 1019.3 1018.0 0.0
24/07:00pm 15.0 7.8 5.8 54 4.5 SE 33 46 18 25 1019.1 1017.7 0.0
24/06:37pm 15.5 9.3 6.0 53 4.7 SE 28 46 15 25 1019.3 1018.0 0.0
24/06:30pm 16.1 9.2 6.3 52 4.9 SE 32 43 17 23 1019.4 1018.1 0.0
24/06:00pm 16.2 8.6 5.8 50 5.1 SSE 35 44 19 24 1019.3 1018.0 0.0
24/05:30pm 16.6 9.7 6.4 51 5.1 SE 32 44 17 24 1019.5 1018.2 0.0
24/05:00pm 17.7 10.9 6.9 49 5.5 SE 32 44 17 24 1019.4 1018.1 0.0
24/04:53pm 17.4 10.6 6.9 50 5.3 SE 32 44 17 24 1019.2 1017.8 0.0
24/04:39pm 17.0 9.1 6.2 49 5.4 SSE 37 50 20 27 1019.0 1017.6 0.0
24/04:30pm 16.1 8.6 6.3 52 4.9 SE 35 46 19 25 1019.2 1017.8 0.0
24/04:17pm 17.0 10.4 7.6 54 4.8 SE 32 50 17 27 1019.4 1018.1 0.0
24/04:00pm 17.3 10.0 7.1 51 5.2 SSE 35 50 19 27 1019.4 1018.1 0.0
24/03:39pm 17.3 10.3 6.8 50 5.3 SE 33 54 18 29 1019.6 1018.3 0.0
24/03:30pm 17.9 10.8 6.4 47 5.8 SSE 33 46 18 25 1019.7 1018.4 0.0
24/03:10pm 18.1 10.9 5.7 44 6.2 SSE 33 52 18 28 1019.6 1018.3 0.0
24/03:00pm 18.0 10.5 6.5 47 5.8 SSE 35 44 19 24 1019.4 1018.1 0.0
24/02:30pm 16.8 9.2 6.0 49 5.4 SE 35 48 19 26 1019.8 1018.5 0.0
24/02:00pm 17.1 8.8 6.3 49 5.4 SSE 39 52 21 28 1019.9 1018.6 0.0
24/01:30pm 17.4 9.3 7.2 51 5.2 SE 39 48 21 26 1019.9 1018.6 0.0
24/01:00pm 16.8 8.8 7.4 54 4.8 SE 39 50 21 27 1020.3 1019.0 0.0
24/12:30pm 15.9 8.2 6.9 55 4.5 SE 37 46 20 25 1020.6 1019.2 0.0
24/12:00pm 16.2 9.4 7.7 57 4.3 SSE 33 48 18 26 1020.9 1019.5 0.0
24/11:30am 15.4 7.8 5.6 52 4.8 SE 35 57 19 31 1020.8 1019.4 0.0
24/11:22am 15.6 8.1 6.3 54 4.6 SE 35 57 19 31 1020.7 1019.3 0.0

Other Formats:

Comma delimited format used in spreadsheet applications
http://www.bom.gov.au/fwo/IDV60801/IDV60801.94852.axf

JavaScript Object Notation format (JSON) in row-major order
http://www.bom.gov.au/fwo/IDV60801/IDV60801.94852.json